Location: Laterina
(43.5167°N, 11.7167°E)
Time: 16:57:28
(UTC+00:00)

Cosmos 1125 Rocket - Visible Passes

Search period start: 20 January 2021 00:00
Search period end: 30 January 2021 00:00
Orbit: 757 x 780 km, 74.0° (Epoch: 20 January)

Date Brightness Start Highest point End Pass type
(mag) Time Alt. Az. Time Alt. Az. Time Alt. Az.
20 Jan 6.3 04:17:05 10° NNE 04:18:33 11° NE 04:20:01 10° ENE visible
20 Jan 4.0 05:56:23 10° NNW 06:01:42 67° ENE 06:06:58 10° SSE visible
21 Jan 4.8 05:19:42 10° N 05:24:43 41° ENE 05:29:43 10° SE visible
22 Jan 5.5 04:43:12 10° N 04:47:37 26° ENE 04:52:02 10° ESE visible
23 Jan 6.1 04:06:59 10° NNE 04:10:25 17° NE 04:13:50 10° E visible
23 Jan 3.5 05:47:48 10° NNW 05:53:07 76° WSW 05:58:24 10° SSE visible
24 Jan 6.4 03:31:41 10° NNE 03:33:05 11° NE 03:34:28 10° ENE visible
24 Jan 3.9 05:10:56 10° NNW 05:16:14 66° ENE 05:21:31 10° SSE visible
25 Jan 4.8 04:34:15 10° N 04:39:16 40° ENE 04:44:15 10° SE visible
25 Jan 6.0 19:12:24 10° SSW 19:12:41 11° SSW 19:12:41 11° SSW visible
26 Jan 5.5 03:57:44 10° N 04:02:10 26° ENE 04:06:34 10° ESE visible
26 Jan 3.9 05:39:23 10° NNW 05:44:26 45° WSW 05:49:28 10° S visible
26 Jan 5.0 18:35:48 10° S 18:37:52 24° S 18:37:52 24° S visible
27 Jan 6.1 03:21:34 10° NNE 03:24:57 17° NE 03:28:21 10° E visible
27 Jan 3.4 05:02:20 10° NNW 05:07:40 77° WSW 05:12:57 10° SSE visible
27 Jan 4.4 17:59:37 10° SSE 18:03:06 28° ESE 18:03:06 28° ESE visible
27 Jan 5.6 19:41:18 10° SW 19:43:28 22° WSW 19:43:28 22° WSW visible
28 Jan 6.4 02:46:18 10° NNE 02:47:36 11° NE 02:48:55 10° ENE visible
28 Jan 3.9 04:26:14 14° NNW 04:30:47 65° ENE 04:36:04 10° SSE visible
28 Jan 4.8 17:24:03 10° SE 17:27:31 18° E 17:28:19 18° E visible
28 Jan 4.0 19:03:55 10° SW 19:08:41 57° W 19:08:41 57° W visible
29 Jan 4.7 03:50:45 21° N 03:53:48 40° ENE 03:58:47 10° SE visible
29 Jan 4.4 05:31:14 10° NW 05:35:40 27° W 05:40:06 10° SSW visible
29 Jan 5.4 16:50:42 10° E 16:51:01 10° E 16:51:21 10° E visible
29 Jan 3.4 18:26:56 10° SSW 18:32:10 85° ESE 18:33:51 45° NNE visible
29 Jan 6.2 20:11:59 10° W 20:14:13 15° WNW 20:14:13 15° WNW visible
